| time (UTC) | temp F | wind direction | speed MPH | gust MPH | rain 1hr in | rain 24hr in | rain mn in | humidity % | barometer mb |
| 20260831170025 | 62 | 207 | 0.0 | 0.0 | 0.00 | 0.00 | 0.00 | 56 | 1019.5 |
| 20260831165534 | 61 | 215 | 0.0 | 1.0 | 0.00 | 0.00 | 0.00 | 55 | 1019.6 |
| 20260831165026 | 61 | 192 | 0.0 | 2.0 | 0.00 | 0.00 | 0.00 | 58 | 1019.8 |
| 20260831164526 | 61 | 188 | 0.0 | 2.0 | 0.00 | 0.00 | 0.00 | 61 | 1019.7 |
| 20260831164033 | 61 | 163 | 0.0 | 0.0 | 0.00 | 0.00 | 0.00 | 60 | 1019.8 |
| 20260831163524 | 61 | 178 | 0.0 | 0.0 | 0.00 | 0.00 | 0.00 | 60 | 1019.8 |
| 20260831163025 | 60 | 170 | 0.0 | 0.0 | 0.00 | 0.00 | 0.00 | 61 | 1019.9 |
| 20260831162530 | 60 | 175 | 0.0 | 0.0 | 0.00 | 0.00 | 0.00 | 61 | 1019.8 |
| 20260831162020 | 60 | 162 | 0.0 | 0.0 | 0.00 | 0.00 | 0.00 | 63 | 1019.7 |
| 20260831161536 | 59 | 155 | 0.0 | 0.0 | 0.00 | 0.00 | 0.00 | 62 | 1019.7 |
| 20260831161027 | 59 | 155 | 0.0 | 0.0 | 0.00 | 0.00 | 0.00 | 66 | 1019.9 |
| 20260831160536 | 59 | 163 | 0.0 | 0.0 | 0.00 | 0.00 | 0.00 | 71 | 1020.0 |
| 20260831160038 | 58 | 190 | 0.0 | 0.0 | 0.00 | 0.00 | 0.00 | 72 | 1020.0 |
| 20260831155523 | 58 | 178 | 0.0 | 0.0 | 0.00 | 0.00 | 0.00 | 71 | 1020.1 |
| 20260831155031 | 57 | 166 | 0.0 | 0.0 | 0.00 | 0.00 | 0.00 | 74 | 1020.1 |
| 20260831154526 | 57 | 211 | 0.0 | 0.0 | 0.00 | 0.00 | 0.00 | 75 | 1020.1 |
| 20260831154025 | 56 | 242 | 0.0 | 0.0 | 0.00 | 0.00 | 0.00 | 77 | 1020.2 |
| 20260831153530 | 55 | 242 | 0.0 | 0.0 | 0.00 | 0.00 | 0.00 | 75 | 1020.2 |
| 20260831153023 | 55 | 241 | 0.0 | 0.0 | 0.00 | 0.00 | 0.00 | 75 | 1020.3 |
| 20260831152537 | 55 | 247 | 0.0 | 0.0 | 0.00 | 0.00 | 0.00 | 76 | 1020.3 |
| 20260831152024 | 55 | 240 | 0.0 | 0.0 | 0.00 | 0.00 | 0.00 | 76 | 1020.4 |
| 20260831151521 | 54 | 240 | 0.0 | 0.0 | 0.00 | 0.00 | 0.00 | 77 | 1020.3 |
| 20260831151030 | 54 | 240 | 0.0 | 0.0 | 0.00 | 0.00 | 0.00 | 77 | 1020.4 |
| 20260831150520 | 53 | 240 | 0.0 | 1.0 | 0.00 | 0.00 | 0.00 | 78 | 1020.3 |
| 20260831150034 | 53 | 257 | 0.0 | 1.0 | 0.00 | 0.00 | 0.00 | 80 | 1020.3 |
| 20260831145524 | 53 | 244 | 0.0 | 0.0 | 0.00 | 0.00 | 0.00 | 80 | 1020.3 |
| 20260831145032 | 53 | 240 | 0.0 | 0.0 | 0.00 | 0.00 | 0.00 | 81 | 1020.2 |
| 20260831144528 | 53 | 256 | 0.0 | 0.0 | 0.00 | 0.00 | 0.00 | 81 | 1020.2 |
| 20260831144019 | 53 | 17 | 0.0 | 0.0 | 0.00 | 0.00 | 0.00 | 79 | 1020.2 |
| 20260831143531 | 53 | 54 | 0.0 | 0.0 | 0.00 | 0.00 | 0.00 | 74 | 1020.2 |
| 20260831143028 | 53 | 54 | 0.0 | 0.0 | 0.00 | 0.00 | 0.00 | 75 | 1020.1 |
| 20260831142539 | 52 | 57 | 0.0 | 0.0 | 0.00 | 0.00 | 0.00 | 76 | 1020.0 |
| 20260831142027 | 52 | 57 | 0.0 | 0.0 | 0.00 | 0.00 | 0.00 | 76 | 1020.0 |
| 20260831141522 | 52 | 56 | 0.0 | 0.0 | 0.00 | 0.00 | 0.00 | 76 | 1020.1 |
| 20260831141032 | 51 | 57 | 0.0 | 0.0 | 0.00 | 0.00 | 0.00 | 76 | 1020.0 |
| 20260831140527 | 51 | 48 | 0.0 | 0.0 | 0.00 | 0.00 | 0.00 | 79 | 1020.0 |
| 20260831140020 | 51 | 322 | 0.0 | 0.0 | 0.00 | 0.00 | 0.00 | 82 | 1019.9 |
| 20260831135528 | 51 | 322 | 0.0 | 0.0 | 0.00 | 0.00 | 0.00 | 83 | 1020.0 |
| 20260831135018 | 51 | 240 | 0.0 | 1.0 | 0.00 | 0.00 | 0.00 | 83 | 1019.9 |
| 20260831134538 | 50 | 254 | 0.0 | 1.0 | 0.00 | 0.00 | 0.00 | 84 | 1019.8 |
| 20260831134026 | 50 | 259 | 0.0 | 2.0 | 0.00 | 0.00 | 0.00 | 84 | 1019.7 |
| 20260831133534 | 50 | 259 | 0.0 | 2.0 | 0.00 | 0.00 | 0.00 | 83 | 1019.6 |
| 20260831133030 | 50 | 201 | 0.0 | 1.0 | 0.00 | 0.00 | 0.00 | 83 | 1019.6 |
| 20260831132526 | 50 | 244 | 0.0 | 3.0 | 0.00 | 0.00 | 0.00 | 83 | 1019.6 |
| 20260831132034 | 49 | 240 | 0.0 | 6.0 | 0.00 | 0.00 | 0.00 | 82 | 1019.7 |
| 20260831131544 | 49 | 195 | 2.0 | 6.0 | 0.00 | 0.00 | 0.00 | 83 | 1019.6 |
| 20260831131023 | 49 | 230 | 1.0 | 5.0 | 0.00 | 0.00 | 0.00 | 85 | 1019.6 |
| 20260831130530 | 49 | 241 | 1.0 | 5.0 | 0.00 | 0.00 | 0.00 | 82 | 1019.6 |
| 20260831130025 | 49 | 244 | 0.0 | 3.0 | 0.00 | 0.00 | 0.00 | 84 | 1019.4 |
| 20260831125533 | 49 | 219 | 0.0 | 3.0 | 0.00 | 0.00 | 0.00 | 84 | 1019.5 |
| 20260831125024 | 49 | 271 | 0.0 | 3.0 | 0.00 | 0.00 | 0.00 | 84 | 1019.5 |
| 20260831124525 | 49 | 265 | 0.0 | 3.0 | 0.00 | 0.00 | 0.00 | 80 | 1019.4 |
| 20260831124029 | 49 | 310 | 0.0 | 3.0 | 0.00 | 0.00 | 0.00 | 82 | 1019.5 |
| 20260831123519 | 49 | 257 | 0.0 | 5.0 | 0.00 | 0.00 | 0.00 | 82 | 1019.6 |
| 20260831123036 | 49 | 261 | 1.0 | 5.0 | 0.00 | 0.00 | 0.00 | 83 | 1019.6 |
| 20260831122526 | 49 | 252 | 3.0 | 6.0 | 0.00 | 0.00 | 0.00 | 84 | 1019.5 |
| 20260831122019 | 49 | 265 | 3.0 | 5.0 | 0.00 | 0.00 | 0.00 | 84 | 1019.4 |
| 20260831121533 | 49 | 261 | 0.0 | 4.0 | 0.00 | 0.00 | 0.00 | 85 | 1019.5 |
| 20260831121025 | 49 | 231 | 1.0 | 5.0 | 0.00 | 0.00 | 0.00 | 85 | 1019.4 |
| 20260831120539 | 50 | 250 | 3.0 | 5.0 | 0.00 | 0.00 | 0.00 | 85 | 1019.4 |
| 20260831120036 | 50 | 261 | 0.0 | 1.0 | 0.00 | 0.00 | 0.00 | 84 | 1019.4 |
| 20260831115522 | 50 | 281 | 0.0 | 1.0 | 0.00 | 0.00 | 0.00 | 83 | 1019.5 |
| 20260831115034 | 49 | 240 | 0.0 | 3.0 | 0.00 | 0.00 | 0.00 | 83 | 1019.5 |
| 20260831114530 | 49 | 270 | 0.0 | 5.0 | 0.00 | 0.00 | 0.00 | 82 | 1019.6 |
| 20260831114021 | 49 | 250 | 2.0 | 4.0 | 0.00 | 0.00 | 0.00 | 83 | 1019.5 |
| 20260831113529 | 50 | 258 | 2.0 | 4.0 | 0.00 | 0.00 | 0.00 | 84 | 1019.5 |
| 20260831113029 | 50 | 232 | 0.0 | 4.0 | 0.00 | 0.00 | 0.00 | 84 | 1019.5 |
| 20260831112536 | 50 | 240 | 0.0 | 5.0 | 0.00 | 0.00 | 0.00 | 84 | 1019.5 |
| 20260831112028 | 50 | 247 | 0.0 | 4.0 | 0.00 | 0.00 | 0.00 | 85 | 1019.5 |
| 20260831111524 | 50 | 200 | 0.0 | 4.0 | 0.00 | 0.00 | 0.00 | 83 | 1019.5 |
| 20260831111034 | 50 | 217 | 0.0 | 5.0 | 0.00 | 0.00 | 0.00 | 82 | 1019.6 |
| 20260831110527 | 50 | 242 | 2.0 | 5.0 | 0.00 | 0.00 | 0.00 | 81 | 1019.6 |
| 20260831110023 | 50 | 217 | 0.0 | 5.0 | 0.00 | 0.00 | 0.00 | 82 | 1019.5 |
| 20260831105531 | 51 | 229 | 2.0 | 5.0 | 0.00 | 0.00 | 0.00 | 83 | 1019.5 |
| 20260831105021 | 50 | 231 | 0.0 | 5.0 | 0.00 | 0.00 | 0.00 | 83 | 1019.5 |
| 20260831104520 | 50 | 267 | 2.0 | 5.0 | 0.00 | 0.00 | 0.00 | 80 | 1019.5 |
| 20260831104028 | 50 | 247 | 3.0 | 5.0 | 0.00 | 0.00 | 0.00 | 82 | 1019.6 |
| 20260831103522 | 50 | 235 | 0.0 | 5.0 | 0.00 | 0.00 | 0.00 | 82 | 1019.6 |
| 20260831103035 | 50 | 257 | 0.0 | 5.0 | 0.00 | 0.00 | 0.00 | 80 | 1019.5 |
| 20260831102522 | 50 | 225 | 3.0 | 5.0 | 0.00 | 0.00 | 0.00 | 80 | 1019.4 |
| 20260831102033 | 50 | 250 | 0.0 | 4.0 | 0.00 | 0.00 | 0.00 | 79 | 1019.5 |
| 20260831101534 | 50 | 256 | 0.0 | 3.0 | 0.00 | 0.00 | 0.00 | 80 | 1019.5 |
| 20260831101019 | 50 | 267 | 0.0 | 4.0 | 0.00 | 0.00 | 0.00 | 81 | 1019.5 |
| 20260831100527 | 51 | 269 | 0.0 | 4.0 | 0.00 | 0.00 | 0.00 | 82 | 1019.5 |
| 20260831100024 | 51 | 254 | 0.0 | 3.0 | 0.00 | 0.00 | 0.00 | 82 | 1019.4 |
| 20260831095537 | 51 | 237 | 0.0 | 3.0 | 0.00 | 0.00 | 0.00 | 81 | 1019.4 |
| 20260831095026 | 51 | 244 | 0.0 | 2.0 | 0.00 | 0.00 | 0.00 | 80 | 1019.3 |
| 20260831094524 | 52 | 245 | 0.0 | 4.0 | 0.00 | 0.00 | 0.00 | 78 | 1019.4 |
| 20260831094033 | 52 | 244 | 0.0 | 4.0 | 0.00 | 0.00 | 0.00 | 79 | 1019.5 |
| 20260831093522 | 52 | 241 | 0.0 | 3.0 | 0.00 | 0.00 | 0.00 | 81 | 1019.5 |
| 20260831093020 | 52 | 245 | 0.0 | 3.0 | 0.00 | 0.00 | 0.00 | 81 | 1019.5 |
| 20260831092533 | 51 | 250 | 0.0 | 0.0 | 0.00 | 0.00 | 0.00 | 80 | 1019.5 |
| 20260831092020 | 51 | 260 | 0.0 | 0.0 | 0.00 | 0.00 | 0.00 | 79 | 1019.5 |
| 20260831091535 | 51 | 242 | 0.0 | 0.0 | 0.00 | 0.00 | 0.00 | 79 | 1019.5 |
| 20260831091026 | 51 | 260 | 0.0 | 1.0 | 0.00 | 0.00 | 0.00 | 78 | 1019.5 |
| 20260831090535 | 51 | 257 | 0.0 | 3.0 | 0.00 | 0.00 | 0.00 | 77 | 1019.5 |
| 20260831090033 | 52 | 252 | 0.0 | 3.0 | 0.00 | 0.00 | 0.00 | 80 | 1019.5 |
| 20260831085521 | 52 | 246 | 0.0 | 0.0 | 0.00 | 0.00 | 0.00 | 79 | 1019.4 |
| 20260831085033 | 52 | 246 | 0.0 | 0.0 | 0.00 | 0.00 | 0.00 | 78 | 1019.5 |
| 20260831084531 | 52 | 281 | 0.0 | 2.0 | 0.00 | 0.00 | 0.00 | 79 | 1019.5 |
| 20260831084038 | 52 | 258 | 0.0 | 2.0 | 0.00 | 0.00 | 0.00 | 80 | 1019.5 |
| 20260831083527 | 52 | 271 | 0.0 | 3.0 | 0.00 | 0.00 | 0.00 | 79 | 1019.5 |
| 20260831083036 | 52 | 254 | 0.0 | 3.0 | 0.00 | 0.00 | 0.00 | 78 | 1019.6 |
| 20260831082537 | 52 | 273 | 0.0 | 3.0 | 0.00 | 0.00 | 0.00 | 78 | 1019.7 |
| 20260831082026 | 52 | 303 | 0.0 | 2.0 | 0.00 | 0.00 | 0.00 | 77 | 1019.6 |
| 20260831081521 | 52 | 263 | 0.0 | 3.0 | 0.00 | 0.00 | 0.00 | 77 | 1019.7 |
| 20260831081031 | 52 | 267 | 1.0 | 3.0 | 0.00 | 0.00 | 0.00 | 78 | 1019.6 |
| 20260831080519 | 53 | 259 | 0.0 | 5.0 | 0.00 | 0.00 | 0.00 | 77 | 1019.5 |
| 20260831080034 | 53 | 268 | 0.0 | 5.0 | 0.00 | 0.00 | 0.00 | 78 | 1019.5 |
| 20260831075522 | 53 | 245 | 0.0 | 7.0 | 0.00 | 0.00 | 0.00 | 76 | 1019.4 |
| 20260831075034 | 53 | 243 | 3.0 | 6.0 | 0.00 | 0.00 | 0.00 | 75 | 1019.5 |
| 20260831074529 | 53 | 221 | 3.0 | 7.0 | 0.00 | 0.00 | 0.00 | 74 | 1019.4 |
| 20260831074022 | 53 | 211 | 0.0 | 7.0 | 0.00 | 0.00 | 0.00 | 75 | 1019.5 |
| 20260831073532 | 53 | 268 | 2.0 | 7.0 | 0.00 | 0.00 | 0.00 | 72 | 1019.5 |
| 20260831073028 | 53 | 232 | 3.0 | 7.0 | 0.00 | 0.00 | 0.00 | 74 | 1019.5 |
| 20260831072538 | 53 | 279 | 3.0 | 8.0 | 0.00 | 0.00 | 0.00 | 74 | 1019.4 |
| 20260831072026 | 54 | 242 | 3.0 | 8.0 | 0.00 | 0.00 | 0.00 | 71 | 1019.4 |
| 20260831071524 | 55 | 172 | 2.0 | 5.0 | 0.00 | 0.00 | 0.00 | 72 | 1019.3 |
| 20260831071032 | 55 | 231 | 1.0 | 4.0 | 0.00 | 0.00 | 0.00 | 75 | 1019.4 |
| 20260831070522 | 54 | 284 | 0.0 | 7.0 | 0.00 | 0.00 | 0.00 | 72 | 1019.5 |
| 20260831070039 | 55 | 246 | 4.0 | 7.0 | 0.00 | 0.00 | 0.00 | 71 | 1019.5 |
| 20260831065526 | 56 | 57 | 0.0 | 2.0 | 0.00 | 0.00 | 0.00 | 73 | 1019.5 |
| 20260831065038 | 55 | 250 | 0.0 | 0.0 | 0.00 | 0.00 | 0.00 | 69 | 1019.5 |
| 20260831064536 | 55 | 189 | 0.0 | 7.0 | 0.00 | 0.00 | 0.00 | 70 | 1019.5 |
| 20260831064023 | 55 | 281 | 3.0 | 7.0 | 0.00 | 0.00 | 0.00 | 70 | 1019.5 |
| 20260831063534 | 55 | 224 | 1.0 | 6.0 | 0.00 | 0.00 | 0.00 | 70 | 1019.4 |
| 20260831063026 | 55 | 246 | 2.0 | 7.0 | 0.00 | 0.00 | 0.00 | 69 | 1019.4 |
| 20260831062522 | 55 | 254 | 2.0 | 7.0 | 0.00 | 0.00 | 0.00 | 70 | 1019.4 |
| 20260831062031 | 56 | 240 | 0.0 | 3.0 | 0.00 | 0.00 | 0.00 | 69 | 1019.5 |
| 20260831061529 | 57 | 259 | 0.0 | 4.0 | 0.00 | 0.00 | 0.00 | 69 | 1019.5 |
| 20260831061038 | 58 | 243 | 0.0 | 6.0 | 0.00 | 0.00 | 0.00 | 66 | 1019.4 |
| 20260831060529 | 59 | 301 | 1.0 | 5.0 | 0.00 | 0.00 | 0.00 | 67 | 1019.4 |
| 20260831060025 | 60 | 55 | 0.0 | 5.0 | 0.00 | 0.00 | 0.00 | 65 | 1019.4 |
| 20260831055532 | 60 | 5 | 0.0 | 5.0 | 0.00 | 0.00 | 0.00 | 65 | 1019.3 |
| 20260831055021 | 60 | 109 | 0.0 | 4.0 | 0.00 | 0.00 | 0.00 | 64 | 1019.3 |
| 20260831054539 | 60 | 76 | 1.0 | 4.0 | 0.00 | 0.00 | 0.00 | 66 | 1019.3 |
| 20260831054030 | 60 | 336 | 0.0 | 5.0 | 0.00 | 0.00 | 0.00 | 63 | 1019.3 |
| 20260831053541 | 60 | 330 | 1.0 | 5.0 | 0.00 | 0.00 | 0.00 | 64 | 1019.3 |
| 20260831053037 | 60 | 182 | 0.0 | 3.0 | 0.00 | 0.00 | 0.00 | 63 | 1019.3 |
| 20260831052525 | 60 | 180 | 0.0 | 2.0 | 0.00 | 0.00 | 0.00 | 61 | 1019.4 |
| 20260831052037 | 60 | 138 | 0.0 | 7.0 | 0.00 | 0.00 | 0.00 | 63 | 1019.4 |
| 20260831051533 | 59 | 159 | 1.0 | 7.0 | 0.00 | 0.00 | 0.00 | 63 | 1019.3 |
| 20260831051024 | 59 | 108 | 0.0 | 3.0 | 0.00 | 0.00 | 0.00 | 63 | 1019.4 |
| 20260831050533 | 58 | 11 | 0.0 | 3.0 | 0.00 | 0.00 | 0.00 | 65 | 1019.4 |
| 20260831050029 | 58 | 208 | 0.0 | 1.0 | 0.00 | 0.00 | 0.00 | 65 | 1019.4 |
| 20260831045521 | 58 | 218 | 0.0 | 2.0 | 0.00 | 0.00 | 0.00 | 63 | 1019.4 |
| 20260831045029 | 58 | 243 | 0.0 | 2.0 | 0.00 | 0.00 | 0.00 | 63 | 1019.5 |
| 20260831044528 | 58 | 245 | 0.0 | 0.0 | 0.00 | 0.00 | 0.00 | 64 | 1019.5 |
| 20260831044033 | 59 | 245 | 0.0 | 0.0 | 0.00 | 0.00 | 0.00 | 59 | 1019.5 |
| 20260831043527 | 59 | 245 | 0.0 | 0.0 | 0.00 | 0.00 | 0.00 | 59 | 1019.5 |
| 20260831043021 | 59 | 245 | 0.0 | 0.0 | 0.00 | 0.00 | 0.00 | 61 | 1019.5 |
| 20260831042530 | 59 | 237 | 0.0 | 3.0 | 0.00 | 0.00 | 0.00 | 60 | 1019.5 |
| 20260831042021 | 59 | 283 | 0.0 | 6.0 | 0.00 | 0.00 | 0.00 | 58 | 1019.6 |
| 20260831041622 | 60 | 250 | 3.0 | 6.0 | 0.00 | 0.00 | 0.00 | 53 | 1019.7 |
| 20260831041032 | 60 | 248 | 2.0 | 4.0 | 0.00 | 0.00 | 0.00 | 57 | 1019.5 |
| 20260831040541 | 60 | 240 | 2.0 | 3.0 | 0.00 | 0.00 | 0.00 | 55 | 1019.4 |
| 20260831040031 | 60 | 238 | 0.0 | 2.0 | 0.00 | 0.00 | 0.00 | 56 | 1019.4 |
| 20260831035522 | 61 | 277 | 0.0 | 3.0 | 0.00 | 0.00 | 0.00 | 51 | 1019.3 |
| 20260831035035 | 61 | 275 | 1.0 | 6.0 | 0.00 | 0.00 | 0.00 | 50 | 1019.4 |
| 20260831034526 | 61 | 266 | 2.0 | 8.0 | 0.00 | 0.00 | 0.00 | 49 | 1019.4 |
| 20260831034038 | 61 | 267 | 3.0 | 9.0 | 0.00 | 0.00 | 0.00 | 50 | 1019.4 |
| 20260831033525 | 61 | 264 | 4.0 | 9.0 | 0.00 | 0.00 | 0.00 | 55 | 1019.4 |
| 20260831033024 | 61 | 265 | 2.0 | 6.0 | 0.00 | 0.00 | 0.00 | 59 | 1019.3 |
| 20260831032529 | 62 | 270 | 3.0 | 6.0 | 0.00 | 0.00 | 0.00 | 55 | 1019.2 |
| 20260831032040 | 62 | 296 | 0.0 | 3.0 | 0.00 | 0.00 | 0.00 | 58 | 1019.3 |
| 20260831031534 | 63 | 269 | 1.0 | 3.0 | 0.00 | 0.00 | 0.00 | 55 | 1019.2 |
| 20260831031025 | 63 | 257 | 1.0 | 3.0 | 0.00 | 0.00 | 0.00 | 52 | 1019.1 |
| 20260831030535 | 64 | 256 | 1.0 | 3.0 | 0.00 | 0.00 | 0.00 | 52 | 1019.1 |
| 20260831030034 | 65 | 268 | 1.0 | 3.0 | 0.00 | 0.00 | 0.00 | 45 | 1019.0 |
| 20260831025525 | 66 | 269 | 1.0 | 3.0 | 0.00 | 0.00 | 0.00 | 42 | 1019.1 |
| 20260831025033 | 66 | 251 | 1.0 | 4.0 | 0.00 | 0.00 | 0.00 | 43 | 1019.0 |
| 20260831024538 | 67 | 170 | 1.0 | 5.0 | 0.00 | 0.00 | 0.00 | 43 | 1019.2 |
| 20260831024039 | 67 | 218 | 3.0 | 5.0 | 0.00 | 0.00 | 0.00 | 44 | 1019.1 |
| 20260831023530 | 66 | 217 | 3.0 | 5.0 | 0.00 | 0.00 | 0.00 | 45 | 1019.0 |
| 20260831023020 | 66 | 234 | 3.0 | 5.0 | 0.00 | 0.00 | 0.00 | 48 | 1019.0 |
| 20260831022531 | 67 | 209 | 3.0 | 5.0 | 0.00 | 0.00 | 0.00 | 48 | 1019.0 |
| 20260831022021 | 67 | 190 | 3.0 | 6.0 | 0.00 | 0.00 | 0.00 | 43 | 1018.9 |
| 20260831021533 | 67 | 182 | 4.0 | 7.0 | 0.00 | 0.00 | 0.00 | 43 | 1018.9 |
| 20260831021030 | 68 | 186 | 4.0 | 8.0 | 0.00 | 0.00 | 0.00 | 41 | 1019.0 |
| 20260831020539 | 68 | 200 | 5.0 | 8.0 | 0.00 | 0.00 | 0.00 | 41 | 1019.0 |
| 20260831020035 | 68 | 179 | 5.0 | 7.0 | 0.00 | 0.00 | 0.00 | 40 | 1019.0 |
| 20260831015528 | 68 | 188 | 5.0 | 8.0 | 0.00 | 0.00 | 0.00 | 39 | 1019.0 |
| 20260831015036 | 68 | 210 | 5.0 | 8.0 | 0.00 | 0.00 | 0.00 | 39 | 1019.0 |
| 20260831014535 | 68 | 210 | 4.0 | 8.0 | 0.00 | 0.00 | 0.00 | 41 | 1019.0 |
| 20260831014025 | 68 | 253 | 5.0 | 9.0 | 0.00 | 0.00 | 0.00 | 41 | 1018.8 |
| 20260831013534 | 68 | 209 | 6.0 | 9.0 | 0.00 | 0.00 | 0.00 | 39 | 1018.7 |
| 20260831013030 | 68 | 170 | 6.0 | 10.0 | 0.00 | 0.00 | 0.00 | 38 | 1018.9 |
| 20260831012538 | 68 | 175 | 7.0 | 10.0 | 0.00 | 0.00 | 0.00 | 40 | 1018.9 |
| 20260831012027 | 69 | 205 | 6.0 | 10.0 | 0.00 | 0.00 | 0.00 | 41 | 1018.9 |
| 20260831011540 | 69 | 178 | 6.0 | 9.0 | 0.00 | 0.00 | 0.00 | 41 | 1018.9 |
| 20260831011032 | 69 | 188 | 6.0 | 9.0 | 0.00 | 0.00 | 0.00 | 39 | 1018.9 |
| 20260831010522 | 69 | 205 | 5.0 | 10.0 | 0.00 | 0.00 | 0.00 | 40 | 1019.0 |
| 20260831010049 | 69 | 236 | 6.0 | 10.0 | 0.00 | 0.00 | 0.00 | 39 | 1019.0 |
| 20260831005526 | 69 | 198 | 6.0 | 10.0 | 0.00 | 0.00 | 0.00 | 38 | 1019.0 |
| 20260831005040 | 69 | 175 | 5.0 | 8.0 | 0.00 | 0.00 | 0.00 | 41 | 1018.9 |
| 20260831004534 | 69 | 196 | 3.0 | 8.0 | 0.00 | 0.00 | 0.00 | 37 | 1018.9 |
| 20260831004027 | 69 | 44 | 1.0 | 8.0 | 0.00 | 0.00 | 0.00 | 41 | 1018.9 |
| 20260831003536 | 69 | 277 | 3.0 | 9.0 | 0.00 | 0.00 | 0.00 | 38 | 1018.9 |
| 20260831003036 | 69 | 171 | 4.0 | 9.0 | 0.00 | 0.00 | 0.00 | 40 | 1019.0 |
| 20260831002520 | 69 | 51 | 2.0 | 6.0 | 0.00 | 0.00 | 0.00 | 41 | 1019.0 |
| 20260831002031 | 69 | 190 | 4.0 | 6.0 | 0.00 | 0.00 | 0.00 | 36 | 1019.1 |
| 20260831001532 | 69 | 220 | 4.0 | 9.0 | 0.00 | 0.00 | 0.00 | 36 | 1019.1 |
| 20260831001038 | 69 | 188 | 5.0 | 11.0 | 0.00 | 0.00 | 0.00 | 37 | 1019.1 |
| 20260831000625 | 69 | 215 | 4.0 | 11.0 | 0.00 | 0.00 | 0.00 | 36 | 1019.1 |
| 20260831000028 | 69 | 249 | 2.0 | 8.0 | 0.00 | 0.00 | 0.00 | 37 | 1019.1 |
| 20260830235530 | 69 | 119 | 3.0 | 10.0 | 0.00 | 0.00 | 0.00 | 38 | 1019.2 |
| 20260830235020 | 69 | 175 | 5.0 | 11.0 | 0.00 | 0.00 | 0.00 | 37 | 1019.2 |
| 20260830234538 | 69 | 207 | 8.0 | 11.0 | 0.00 | 0.00 | 0.00 | 36 | 1019.2 |
| 20260830234030 | 70 | 169 | 2.0 | 9.0 | 0.00 | 0.00 | 0.00 | 40 | 1019.1 |
| 20260830233520 | 69 | 190 | 2.0 | 8.0 | 0.00 | 0.00 | 0.00 | 35 | 1019.3 |
| 20260830233023 | 69 | 165 | 5.0 | 12.0 | 0.00 | 0.00 | 0.00 | 38 | 1019.3 |
| 20260830232527 | 69 | 214 | 8.0 | 15.0 | 0.00 | 0.00 | 0.00 | 42 | 1019.3 |
| 20260830232040 | 70 | 262 | 6.0 | 15.0 | 0.00 | 0.00 | 0.00 | 42 | 1019.3 |
| 20260830231531 | 69 | 154 | 3.0 | 7.0 | 0.00 | 0.00 | 0.00 | 38 | 1019.2 |
| 20260830231024 | 70 | 211 | 3.0 | 7.0 | 0.00 | 0.00 | 0.00 | 37 | 1019.4 |
| 20260830230530 | 70 | 229 | 2.0 | 8.0 | 0.00 | 0.00 | 0.00 | 36 | 1019.5 |
| 20260830230023 | 70 | 296 | 2.0 | 8.0 | 0.00 | 0.00 | 0.00 | 36 | 1019.5 |
| 20260830225531 | 69 | 222 | 3.0 | 8.0 | 0.00 | 0.00 | 0.00 | 37 | 1019.6 |
| 20260830225021 | 69 | 146 | 3.0 | 10.0 | 0.00 | 0.00 | 0.00 | 38 | 1019.6 |
| 20260830224522 | 70 | 232 | 5.0 | 10.0 | 0.00 | 0.00 | 0.00 | 40 | 1019.7 |
| 20260830224029 | 70 | 176 | 4.0 | 11.0 | 0.00 | 0.00 | 0.00 | 42 | 1019.6 |
| 20260830223538 | 69 | 207 | 3.0 | 9.0 | 0.00 | 0.00 | 0.00 | 37 | 1019.6 |
| 20260830223033 | 69 | 165 | 4.0 | 8.0 | 0.00 | 0.00 | 0.00 | 40 | 1019.8 |
| 20260830222521 | 69 | 173 | 4.0 | 12.0 | 0.00 | 0.00 | 0.00 | 41 | 1019.7 |
| 20260830222034 | 69 | 200 | 5.0 | 12.0 | 0.00 | 0.00 | 0.00 | 44 | 1019.7 |
| 20260830221537 | 69 | 180 | 6.0 | 11.0 | 0.00 | 0.00 | 0.00 | 40 | 1019.7 |
| 20260830221023 | 69 | 238 | 3.0 | 9.0 | 0.00 | 0.00 | 0.00 | 40 | 1019.8 |
| 20260830220534 | 69 | 185 | 5.0 | 8.0 | 0.00 | 0.00 | 0.00 | 40 | 1019.8 |
| 20260830220032 | 69 | 242 | 2.0 | 11.0 | 0.00 | 0.00 | 0.00 | 41 | 1019.9 |
| 20260830215539 | 69 | 219 | 6.0 | 11.0 | 0.00 | 0.00 | 0.00 | 40 | 1019.9 |
| 20260830215025 | 68 | 179 | 5.0 | 11.0 | 0.00 | 0.00 | 0.00 | 38 | 1019.9 |
| 20260830214522 | 68 | 201 | 5.0 | 11.0 | 0.00 | 0.00 | 0.00 | 38 | 1020.0 |
| 20260830214037 | 68 | 212 | 9.0 | 11.0 | 0.00 | 0.00 | 0.00 | 39 | 1020.0 |
| 20260830213524 | 68 | 350 | 6.0 | 11.0 | 0.00 | 0.00 | 0.00 | 41 | 1020.1 |
| 20260830213022 | 68 | 260 | 6.0 | 11.0 | 0.00 | 0.00 | 0.00 | 41 | 1020.1 |
| 20260830212532 | 68 | 220 | 1.0 | 11.0 | 0.00 | 0.00 | 0.00 | 42 | 1020.3 |
| 20260830212020 | 69 | 217 | 3.0 | 10.0 | 0.00 | 0.00 | 0.00 | 44 | 1020.3 |
| 20260830211536 | 68 | 219 | 5.0 | 11.0 | 0.00 | 0.00 | 0.00 | 44 | 1020.4 |
| 20260830211029 | 67 | 240 | 6.0 | 12.0 | 0.00 | 0.00 | 0.00 | 42 | 1020.3 |
| 20260830210539 | 67 | 181 | 7.0 | 15.0 | 0.00 | 0.00 | 0.00 | 48 | 1020.3 |
| 20260830210034 | 66 | 181 | 7.0 | 15.0 | 0.00 | 0.00 | 0.00 | 43 | 1020.4 |
| 20260830205625 | 66 | 127 | 9.0 | 15.0 | 0.00 | 0.00 | 0.00 | 47 | 1020.4 |
| 20260830205033 | 65 | 49 | 8.0 | 14.0 | 0.00 | 0.00 | 0.00 | 44 | 1020.3 |
| 20260830204529 | 66 | 188 | 7.0 | 13.0 | 0.00 | 0.00 | 0.00 | 42 | 1020.5 |
| 20260830204020 | 67 | 184 | 2.0 | 11.0 | 0.00 | 0.00 | 0.00 | 43 | 1020.5 |
| 20260830203529 | 67 | 225 | 4.0 | 11.0 | 0.00 | 0.00 | 0.00 | 44 | 1020.4 |
| 20260830203025 | 66 | 268 | 6.0 | 14.0 | 0.00 | 0.00 | 0.00 | 44 | 1020.3 |
| 20260830202538 | 66 | 241 | 6.0 | 14.0 | 0.00 | 0.00 | 0.00 | 44 | 1020.3 |
| 20260830202026 | 65 | 224 | 5.0 | 10.0 | 0.00 | 0.00 | 0.00 | 45 | 1020.3 |
| 20260830201521 | 66 | 221 | 3.0 | 11.0 | 0.00 | 0.00 | 0.00 | 45 | 1020.3 |
| 20260830201031 | 66 | 240 | 6.0 | 11.0 | 0.00 | 0.00 | 0.00 | 46 | 1020.3 |
| 20260830200524 | 65 | 98 | 4.0 | 11.0 | 0.00 | 0.00 | 0.00 | 48 | 1020.2 |
| 20260830200020 | 65 | 169 | 4.0 | 13.0 | 0.00 | 0.00 | 0.00 | 43 | 1020.2 |
| 20260830195528 | 65 | 202 | 9.0 | 13.0 | 0.00 | 0.00 | 0.00 | 48 | 1020.2 |
| 20260830195037 | 65 | 198 | 9.0 | 13.0 | 0.00 | 0.00 | 0.00 | 46 | 1020.3 |
| 20260830194543 | 64 | 340 | 5.0 | 11.0 | 0.00 | 0.00 | 0.00 | 47 | 1020.3 |
| 20260830194022 | 65 | 212 | 6.0 | 14.0 | 0.00 | 0.00 | 0.00 | 47 | 1020.3 |
| 20260830193531 | 65 | 174 | 4.0 | 13.0 | 0.00 | 0.00 | 0.00 | 50 | 1020.4 |
| 20260830193033 | 64 | 169 | 9.0 | 18.0 | 0.00 | 0.00 | 0.00 | 49 | 1020.3 |
| 20260830192536 | 65 | 190 | 11.0 | 18.0 | 0.00 | 0.00 | 0.00 | 47 | 1020.3 |
| 20260830192026 | 65 | 177 | 5.0 | 9.0 | 0.00 | 0.00 | 0.00 | 46 | 1020.3 |
| 20260830191523 | 64 | 229 | 5.0 | 10.0 | 0.00 | 0.00 | 0.00 | 48 | 1020.7 |
| 20260830191031 | 64 | 241 | 6.0 | 10.0 | 0.00 | 0.00 | 0.00 | 49 | 1020.7 |
| 20260830190521 | 64 | 207 | 6.0 | 12.0 | 0.00 | 0.00 | 0.00 | 48 | 1020.8 |
| 20260830190035 | 64 | 203 | 8.0 | 12.0 | 0.00 | 0.00 | 0.00 | 50 | 1020.7 |
| 20260830185529 | 63 | 208 | 8.0 | 16.0 | 0.00 | 0.00 | 0.00 | 52 | 1020.7 |
| 20260830185022 | 64 | 186 | 8.0 | 16.0 | 0.00 | 0.00 | 0.00 | 49 | 1020.8 |
| 20260830184536 | 63 | 190 | 7.0 | 17.0 | 0.00 | 0.00 | 0.00 | 52 | 1020.8 |
| 20260830184026 | 63 | 222 | 6.0 | 17.0 | 0.00 | 0.00 | 0.00 | 53 | 1020.7 |
| 20260830183537 | 62 | 190 | 9.0 | 17.0 | 0.00 | 0.00 | 0.00 | 53 | 1020.8 |
| 20260830183031 | 62 | 165 | 8.0 | 15.0 | 0.00 | 0.00 | 0.00 | 57 | 1020.7 |
| 20260830182520 | 63 | 196 | 5.0 | 15.0 | 0.00 | 0.00 | 0.00 | 57 | 1020.9 |
| 20260830182029 | 63 | 200 | 7.0 | 16.0 | 0.00 | 0.00 | 0.00 | 53 | 1020.9 |
| 20260830181525 | 62 | 191 | 9.0 | 16.0 | 0.00 | 0.00 | 0.00 | 53 | 1021.0 |
| 20260830181041 | 63 | 182 | 7.0 | 15.0 | 0.00 | 0.00 | 0.00 | 54 | 1021.0 |
| 20260830180523 | 61 | 208 | 8.0 | 13.0 | 0.00 | 0.00 | 0.00 | 54 | 1020.9 |
| 20260830180020 | 61 | 218 | 9.0 | 15.0 | 0.00 | 0.00 | 0.00 | 56 | 1020.9 |
| 20260830175528 | 61 | 196 | 11.0 | 17.0 | 0.00 | 0.00 | 0.00 | 55 | 1020.8 |
| 20260830175019 | 61 | 209 | 10.0 | 16.0 | 0.00 | 0.00 | 0.00 | 58 | 1020.9 |
| 20260830174538 | 60 | 193 | 11.0 | 14.0 | 0.00 | 0.00 | 0.00 | 58 | 1020.9 |
| 20260830174029 | 60 | 161 | 10.0 | 16.0 | 0.00 | 0.00 | 0.00 | 55 | 1021.0 |
| 20260830173518 | 60 | 184 | 12.0 | 15.0 | 0.00 | 0.00 | 0.00 | 58 | 1021.0 |
| 20260830173033 | 60 | 221 | 11.0 | 16.0 | 0.00 | 0.00 | 0.00 | 58 | 1021.1 |
| 20260830172525 | 60 | 198 | 6.0 | 14.0 | 0.00 | 0.00 | 0.00 | 60 | 1020.9 |
| 20260830172033 | 60 | 225 | 8.0 | 14.0 | 0.00 | 0.00 | 0.00 | 61 | 1020.9 |
| 20260830171529 | 60 | 290 | 4.0 | 14.0 | 0.00 | 0.00 | 0.00 | 60 | 1020.9 |
| 20260830171041 | 59 | 63 | 5.0 | 12.0 | 0.00 | 0.00 | 0.00 | 64 | 1020.9 |
| 20260830170527 | 59 | 75 | 4.0 | 11.0 | 0.00 | 0.00 | 0.00 | 62 | 1020.9 |